Wetbulb
66.34 66.45 66.54 66.05 65.64 65.80 66.20 66.20 66.06 66.16 65.54 65.63 67.43 67.58 68.46 68.92 67.66 67.83 67.72 67.73 67.79 67.86 67.35 66.92 66.85 66.61 66.54 66.37 66.20 66.87 65.66 66.45
59.21 60.19 63.82 64.28 63.54 65.28 65.95 66.15 64.86 63.84 64.65 64.99 65.06 66.48 66.84 68.82 68.24 68.37 68.71 68.57 68.25 68.08 67.64 66.91 66.64 66.34 66.10 65.73 65.54 66.30 63.96 65.29
56.56 56.83 57.08 58.27 61.57 63.91 63.54 65.31 64.04 61.81 60.82 62.89 62.57 62.72 63.90 65.89 67.65 67.94 68.18 67.90 68.10 68.10 67.90 66.85 66.26 65.81 65.67 65.60 65.56 64.03 63.50 65.54
54.26 54.94 55.72 55.63 57.78 56.21 56.12 57.77 57.69 57.57 56.58 57.17 58.21 61.03 61.42 64.63 65.23 66.17 66.64 66.43 66.68 66.68 66.81 66.86 66.26 64.63 63.13 63.89 63.17 63.05 63.47 64.77
52.97 53.52 54.63 53.29 53.47 53.31 53.73 53.83 54.77 54.95 54.88 54.74 55.07 57.61 58.15 60.06 62.58 62.36 62.45 64.87 64.01 64.48 65.46 66.15 66.69 67.12 66.69 62.03 62.54 63.11 63.59 66.44
51.64 52.54 52.79 52.22 52.58 52.33 52.29 52.77 53.48 53.47 53.50 54.09 53.80 54.12 54.87 55.03 56.05 58.65 57.48 58.04 61.67 62.51 62.75 63.61 65.38 66.01 66.58 66.10 65.37 63.09 63.25 65.57
50.30 51.15 51.86 52.03 52.15 51.95 51.52 51.70 52.52 52.83 52.60 53.76 53.52 52.62 52.95 52.95 52.91 53.66 53.88 55.13 55.11 54.64 56.19 57.28 60.45 63.29 63.84 65.27 64.88 65.32 65.05 65.64
49.94 50.27 50.38 51.71 50.38 50.37 50.03 50.86 51.16 52.19 52.33 53.21 53.35 52.15 52.15 51.64 51.18 51.31 51.93 52.49 52.21 52.06 52.61 53.53 55.47 57.45 58.43 62.05 65.38 66.42 65.39 66.80
49.31 50.76 50.62 49.96 50.22 50.24 49.56 51.16 51.44 50.72 51.24 52.03 52.63 52.47 51.61 51.44 50.45 50.30 51.05 50.93 51.08 51.02 51.24 51.80 52.12 53.43 55.17 55.08 58.39 63.17 64.08 64.84
49.45 52.26 49.32 50.02 49.66 49.50 50.02 50.39 50.13 50.33 50.16 50.68 52.14 52.26 52.12 50.51 50.30 49.79 50.51 50.05 50.41 49.70 48.86 49.57 49.76 50.48 50.03 52.94 53.56 53.80 56.05 61.40
47.65 47.98 48.18 48.00 48.85 50.13 49.33 49.58 49.57 49.21 49.03 49.76 50.60 51.03 52.27 49.55 49.82 49.57 49.59 49.22 48.60 48.58 47.71 47.43 47.96 49.13 50.82 51.60 50.27 51.31 53.37 60.05
48.24 48.22 48.09 48.29 47.02 47.42 47.73 47.00 47.92 48.62 48.14 48.50 50.45 49.86 50.83 49.35 49.29 49.14 49.65 48.74 48.23 48.04 46.27 47.45 46.40 47.51 50.64 48.99 48.82 51.63 58.45 60.47
47.61 47.40 47.20 48.09 46.28 45.10 44.94 45.15 45.53 46.21 47.89 48.60 48.85 49.84 49.41 48.33 48.79 48.65 49.23 47.90 47.09 47.91 46.05 45.23 44.71 47.07 45.84 47.52 48.79 50.44 51.68 58.49
47.37 47.12 47.26 47.32 47.19 46.33 46.50 45.17 46.45 47.38 47.97 48.25 48.48 48.95 49.05 49.27 48.32 48.18 48.28 48.03 46.82 46.65 45.44 44.73 43.63 45.94 42.99 45.11 43.35 46.69 48.15 51.99
47.40 46.97 47.33 47.97 48.28 47.95 47.77 47.33 46.94 46.97 47.43 47.26 47.84 48.87 49.33 48.52 48.77 48.23 47.80 47.98 46.90 45.68 45.69 45.04 43.08 43.63 44.45 44.10 41.08 40.94 43.86 48.28
47.29 48.05 48.22 49.04 48.50 47.30 46.27 44.88 44.47 45.99 47.04 47.50 48.64 49.01 48.67 49.31 49.04 48.67 47.70 47.66 46.54 46.69 48.38 45.54 44.44 42.34 43.80 46.03 43.29 43.09 40.64 39.81
46.75 47.55 48.29 48.75 48.27 47.93 46.79 46.10 46.35 47.22 47.63 48.04 48.26 48.22 49.27 49.60 49.04 48.64 47.37 47.95 47.06 46.46 46.56 46.11 45.68 43.98 43.15 42.63 42.31 42.12 41.43 39.52
47.02 47.06 47.87 48.46 48.40 48.04 47.46 46.71 46.89 46.37 46.88 47.36 47.42 47.92 48.87 49.40 49.70 48.43 48.10 48.25 47.45 47.23 46.82 46.75 45.99 45.67 45.04 44.17 43.28 41.65 40.90 39.71
47.43 47.75 47.82 48.01 48.01 48.34 49.09 48.16 47.48 47.32 47.40 48.23 48.57 48.66 48.61 49.14 49.83 49.52 48.96 48.75 48.88 48.57 47.80 47.05 46.60 45.77 44.97 44.58 45.52 44.99 44.61 43.48
47.67 47.58 47.46 48.33 48.76 48.45 48.87 48.77 48.17 47.88 47.77 48.59 48.62 48.80 48.19 48.55 49.07 49.61 49.67 50.19 50.24 49.44 48.09 47.86 47.26 46.15 46.10 45.74 45.82 46.10 45.94 45.02
MSLP
1026.02 1026.22 1026.20 1026.09 1025.89 1025.74 1025.65 1025.56 1025.39 1025.24 1025.02 1024.63 1024.27 1024.05 1023.73 1023.77 1023.74 1023.63 1023.39 1023.19 1023.10 1022.97 1022.71 1022.46 1022.25 1022.16 1021.95 1021.56 1021.29 1021.21 1021.32 1021.34
1026.47 1026.53 1026.52 1026.32 1026.13 1025.88 1025.74 1025.66 1025.66 1025.57 1025.38 1025.07 1024.70 1024.31 1024.11 1023.88 1023.89 1023.65 1023.50 1023.17 1022.98 1022.88 1022.85 1022.81 1022.71 1022.49 1021.93 1021.68 1021.43 1021.24 1021.25 1020.95
1027.01 1026.84 1026.72 1026.60 1026.36 1026.22 1026.12 1026.06 1025.96 1025.84 1025.71 1025.44 1025.18 1024.89 1024.43 1024.21 1024.08 1023.87 1023.70 1023.38 1023.10 1022.99 1022.61 1022.64 1022.56 1022.42 1022.10 1021.66 1021.48 1021.24 1020.93 1021.07
1027.62 1027.47 1027.34 1026.91 1026.65 1026.77 1026.60 1026.55 1026.60 1026.51 1026.25 1025.85 1025.52 1025.30 1024.89 1024.48 1024.21 1023.96 1023.85 1023.71 1023.39 1023.09 1022.76 1022.78 1022.45 1022.14 1021.75 1021.21 1021.19 1021.12 1020.90 1020.85
1028.21 1028.12 1027.78 1027.53 1027.46 1027.24 1027.14 1026.96 1027.06 1027.03 1026.78 1026.45 1026.11 1025.70 1025.19 1024.75 1024.53 1024.38 1024.15 1023.82 1023.54 1023.26 1023.05 1022.85 1022.67 1022.11 1021.55 1021.38 1020.94 1020.74 1020.73 1020.49
1028.63 1028.62 1028.43 1027.94 1027.94 1027.81 1027.58 1027.51 1027.59 1027.59 1027.30 1026.92 1026.65 1026.42 1025.98 1025.70 1025.31 1024.94 1024.58 1024.17 1023.85 1023.55 1023.35 1023.05 1022.85 1022.49 1022.39 1021.79 1021.42 1021.36 1021.05 1020.54
1029.02 1028.85 1028.82 1028.46 1028.39 1028.26 1028.12 1028.03 1028.05 1028.03 1027.84 1027.40 1027.05 1026.92 1026.60 1026.28 1025.79 1025.54 1025.24 1024.85 1024.41 1024.03 1023.60 1023.14 1022.73 1022.51 1022.16 1021.91 1021.75 1021.36 1021.38 1021.07
1029.35 1029.09 1028.92 1028.64 1028.73 1028.55 1028.49 1028.43 1028.44 1028.47 1028.31 1027.95 1027.55 1027.41 1027.19 1026.75 1026.49 1026.18 1025.78 1025.47 1024.94 1024.49 1024.05 1023.54 1022.99 1022.43 1022.03 1022.04 1021.62 1021.18 1020.86 1021.49
1029.56 1029.21 1029.08 1028.90 1028.76 1028.66 1028.62 1028.73 1028.70 1028.87 1028.79 1028.39 1028.10 1027.77 1027.55 1027.40 1027.12 1026.82 1026.45 1025.94 1025.51 1025.01 1024.55 1023.87 1023.24 1022.85 1022.46 1022.02 1021.76 1021.58 1021.57 1021.56
1029.45 1029.08 1029.21 1028.96 1028.93 1028.83 1028.83 1028.94 1029.05 1029.13 1029.04 1028.88 1028.60 1028.22 1027.88 1027.78 1027.59 1027.32 1026.97 1026.43 1026.05 1025.73 1025.42 1024.86 1024.23 1023.54 1022.81 1022.13 1021.74 1021.29 1020.92 1020.60
1029.53 1029.35 1029.12 1029.00 1028.94 1029.08 1029.08 1029.06 1029.28 1029.30 1029.21 1029.08 1028.88 1028.61 1028.41 1028.26 1028.19 1027.91 1027.48 1027.05 1026.63 1026.36 1025.88 1025.59 1024.93 1024.19 1023.31 1022.51 1021.92 1021.47 1020.93 1020.27
1029.61 1029.45 1029.45 1029.24 1029.19 1029.19 1029.23 1029.22 1029.34 1029.37 1029.43 1029.26 1029.08 1028.96 1028.80 1028.74 1028.66 1028.35 1027.87 1027.65 1027.20 1026.85 1026.50 1025.78 1025.49 1024.96 1023.97 1022.96 1022.36 1021.73 1021.32 1021.27
1029.61 1029.56 1029.52 1029.61 1029.75 1029.57 1029.37 1029.43 1029.60 1029.64 1029.50 1029.22 1029.04 1028.98 1028.93 1028.97 1028.97 1028.65 1028.28 1028.18 1027.86 1027.56 1027.17 1026.53 1025.78 1025.30 1024.40 1023.33 1022.74 1022.22 1021.96 1022.14
1029.60 1029.65 1029.65 1029.51 1029.50 1029.55 1029.46 1029.49 1029.48 1029.35 1029.24 1029.16 1028.98 1028.90 1028.86 1028.79 1028.94 1028.90 1028.62 1028.51 1028.28 1028.17 1027.75 1027.40 1026.75 1026.19 1026.05 1025.09 1024.53 1023.29 1022.61 1022.74
1029.63 1029.83 1029.75 1029.60 1029.48 1029.33 1029.37 1029.57 1029.52 1029.68 1029.57 1029.36 1029.06 1028.69 1028.70 1028.60 1028.59 1028.67 1028.64 1028.63 1028.62 1028.39 1028.18 1027.87 1027.66 1026.91 1026.62 1026.80 1026.36 1025.85 1024.57 1023.34
1029.50 1029.68 1029.66 1029.46 1029.58 1029.95 1030.01 1030.28 1030.28 1030.06 1029.73 1029.25 1029.10 1028.80 1028.60 1028.48 1028.41 1028.29 1028.24 1028.37 1028.39 1028.26 1027.87 1027.97 1027.91 1027.77 1027.20 1026.82 1026.88 1026.99 1026.25 1025.07
1029.29 1029.30 1029.35 1029.24 1029.33 1029.39 1029.70 1029.94 1029.87 1029.64 1029.52 1029.42 1029.20 1028.79 1028.57 1028.52 1028.29 1028.06 1027.94 1027.87 1027.94 1027.86 1027.79 1027.81 1027.79 1027.82 1027.71 1027.38 1027.09 1026.65 1026.34 1026.38
1029.21 1029.39 1029.55 1029.33 1029.30 1029.39 1029.52 1029.73 1029.73 1029.72 1029.57 1029.61 1029.50 1029.10 1028.69 1028.51 1028.33 1028.06 1027.86 1027.67 1027.57 1027.46 1027.29 1027.26 1027.33 1027.33 1027.28 1027.15 1027.19 1027.05 1026.65 1026.33
1029.12 1029.12 1029.11 1029.16 1029.43 1029.79 1029.89 1029.96 1030.01 1030.12 1030.05 1029.81 1029.69 1029.54 1029.29 1029.18 1028.90 1028.64 1028.29 1027.85 1027.45 1027.14 1026.93 1026.87 1026.85 1026.81 1026.76 1026.72 1026.56 1026.42 1026.21 1025.88
1028.76 1029.03 1029.42 1029.53 1029.62 1029.95 1030.08 1030.20 1030.40 1030.49 1030.43 1030.21 1030.11 1030.06 1029.82 1029.58 1029.20 1028.84 1028.52 1028.08 1027.63 1027.25 1026.98 1026.70 1026.42 1026.28 1026.19 1026.07 1025.89 1025.65 1025.45 1025.34
Wind_Speed
5 4 6 7 6 7 8 9 12 15 15 17 16 18 5 4 7 8 8 8 9 9 8 6 4 6 9 10 11 10 5 2
9 9 6 2 2 6 6 9 15 17 16 17 16 14 15 6 7 8 9 8 8 9 11 10 11 12 11 11 12 11 4 4
7 8 9 6 2 5 9 11 14 17 15 15 9 7 7 8 9 11 16 16 12 12 14 9 9 10 14 14 10 5 6 3
8 8 8 9 8 7 6 9 7 9 11 12 9 6 7 7 9 13 14 14 13 14 14 10 10 4 5 10 3 7 3 1
8 8 7 8 6 5 4 4 5 6 9 10 8 7 8 6 4 4 4 8 4 6 6 4 7 7 7 5 5 5 2 4
7 7 7 7 5 4 5 4 4 4 6 9 7 6 8 6 6 6 6 7 6 5 3 5 3 5 7 10 11 8 3 2
6 7 6 6 6 5 5 5 4 5 6 7 6 7 8 5 7 7 8 7 8 8 9 8 7 4 4 5 6 7 9 3
5 6 7 6 5 5 5 5 5 5 5 6 8 6 7 5 6 6 7 5 8 8 8 8 8 9 9 8 7 6 7 5
2 5 5 5 4 4 4 4 5 5 5 7 8 8 8 6 5 7 6 5 9 9 10 9 9 8 8 8 4 5 5 5
6 4 4 2 2 1 3 4 5 5 5 5 7 8 8 7 5 7 6 5 7 7 7 8 8 6 8 7 7 8 7 8
4 2 3 3 5 3 4 5 4 4 4 4 6 7 8 7 5 6 6 5 6 6 7 4 7 8 9 8 8 7 7 7
5 4 6 4 5 4 3 4 3 3 3 4 5 5 7 6 6 6 6 4 7 7 8 9 3 8 8 9 5 5 9 9
5 6 5 5 3 2 2 1 2 3 2 4 5 5 6 6 4 5 6 5 6 6 5 7 5 10 6 7 3 4 12 7
7 6 5 4 2 1 1 2 1 3 2 2 3 4 3 3 4 5 6 4 6 6 6 5 4 7 5 2 6 6 10 4
6 6 5 5 6 5 4 3 3 4 3 2 2 3 3 3 3 3 5 4 4 4 4 6 4 5 7 4 5 3 8 4
5 7 6 5 6 5 5 2 2 2 2 2 2 4 3 3 2 2 1 1 3 3 3 2 3 4 4 5 1 2 3 6
6 6 7 6 6 5 4 2 2 2 2 6 4 4 1 3 3 3 2 2 3 3 3 4 2 2 1 2 3 4 2 2
4 3 6 7 6 6 5 4 3 3 4 4 4 3 3 3 4 4 4 2 3 4 4 3 4 4 3 2 2 2 4 3
6 6 6 6 3 3 5 5 7 7 5 4 6 4 4 7 7 6 4 6 6 5 5 5 5 3 5 4 4 4 3 3
8 6 1 7 7 8 7 8 5 5 5 5 6 6 5 7 9 10 11 10 8 7 4 5 6 5 7 6 5 5 4 4
Wind_Direction
85 89 85 80 75 64 50 47 49 36 26 14 10 20 325 337 345 349 348 351 347 333 320 300 285 296 298 295 300 307 323 186
37 34 21 21 4 49 51 56 46 33 18 17 11 14 14 354 345 324 342 334 333 327 319 318 315 308 290 289 294 305 292 302
41 23 11 354 4 34 33 43 50 33 19 8 9 5 6 13 11 20 16 16 356 339 318 308 304 304 295 280 275 286 286 219
39 20 10 12 38 30 22 37 36 38 21 10 5 359 5 11 12 21 14 15 359 349 355 339 319 294 284 285 228 268 302 163
36 16 17 25 24 28 16 39 43 29 17 13 3 5 359 353 16 15 2 358 342 345 343 3 345 340 340 311 272 244 258 179
44 17 18 29 31 23 30 37 55 44 20 15 14 4 1 6 24 358 359 345 333 337 337 324 329 302 338 343 356 341 337 185
67 34 19 31 34 25 22 30 53 46 25 10 18 11 4 357 16 7 357 355 8 3 359 356 355 344 339 334 319 329 1 351
85 59 37 36 43 41 32 40 43 43 26 15 11 11 8 8 16 1 360 1 7 2 357 351 349 348 351 340 326 328 344 345
125 75 39 49 40 73 51 52 63 49 27 15 10 12 15 1 14 5 354 3 8 2 356 351 352 347 347 336 349 295 264 214
64 48 50 354 72 79 73 77 73 64 46 22 15 8 13 14 11 9 352 14 10 360 358 349 346 341 340 335 332 328 309 297
100 57 335 18 7 68 61 83 90 94 64 46 26 15 12 19 12 355 356 9 6 0 358 351 347 348 341 333 326 321 315 325
116 53 25 32 51 68 58 64 90 89 83 57 53 23 24 20 8 356 3 3 6 4 358 351 331 345 332 328 321 15 39 47
122 81 33 43 26 42 24 105 66 72 98 78 65 53 37 26 9 359 1 15 7 2 346 345 336 350 333 343 7 2 36 22
117 105 61 33 36 8 268 131 111 130 122 111 97 91 81 48 31 4 2 7 7 2 4 341 322 359 352 330 355 336 356 8
121 130 102 57 36 28 19 30 17 23 347 11 257 159 139 111 88 50 359 13 353 344 355 7 352 331 8 39 349 345 322 335
132 128 125 93 69 54 60 71 36 267 285 312 289 241 175 163 141 123 15 343 348 320 344 348 11 343 338 356 24 242 339 331
156 163 150 156 154 149 144 161 225 251 316 325 321 311 211 212 197 199 243 198 259 296 317 327 300 287 284 323 322 321 309 325
150 226 195 183 177 191 184 202 251 313 323 337 335 328 325 304 270 268 269 268 265 263 261 272 279 279 257 266 248 263 289 294
177 217 231 201 186 47 57 47 36 31 19 6 2 346 350 354 350 341 321 302 289 274 262 260 263 247 249 250 239 252 249 265
184 199 166 75 79 58 51 44 42 32 19 17 21 19 352 1 358 357 351 343 333 314 292 279 264 262 254 247 243 245 240 244